ROMMA est une association bénévole à but non lucratif. Votre soutien est indispensable : ADHERER à ROMMA ou FAIRE un DON

Le Versoud - (38, Isère)

Vallée du Grésivaudan (220 m)   Longitude: 05° 51' 44" E   Latitude: 45° 13' 06" N Station partenaire n°6
 

Détail journalier du     <<     >>

Température Humidité Pression Vent Dir Rafale Dir. rafale Ensol.
Heure (°C) (%) (hPa) (km/h) (km/h) (min)
01:00 21.35410102NE24NE0
02:00 19.36610103NE26NE0
03:00 18.96610102N24NNO0
04:00 17.67110101N16N0
05:00 16.674100900---0
06:00 16.273101000---0
07:00 16.275101002N0
08:00 17.072101002NNO0
09:00 16.779101000---0
10:00 16.883101000---0
11:00 18.86810101---13ENE0
12:00 20.06310102NE24N0
13:00 22.25310105N26N30
14:00 23.25210096N24NE35
15:00 23.35010105NE29N15
16:00 24.84810104NE24NE10
17:00 24.34910103ENE23N10
18:00 25.44810104N24NNE40
19:00 25.04810113NE21N45
20:00 25.04910111N21NNE55
21:00 23.4551012013N55
22:00 21.860101200---0
23:00 20.064101300---0
minuit 19.168101400---0

Graphique du 15-07-2019

 

Serveur OMMA